Location: Unspecified
(41.1850°N, 73.2650°W)
Time: 00:20:05
(UTC+00:00)

BlueWalker 3 - Pass Details

Date: 20 February 2026
Orbit: 451 x 458 km, 53.2° (Epoch: 7 March)

Event Time Altitude Azimuth Distance (km) Brightness Sun altitude
Rises 10:38:59 0° 179° (S) 2,459 5.5 -12.3°
Reaches altitude 10° 10:42:35 10° 141° (SE) 1,591 5.1 -11.6°
Maximum altitude 10:43:32 11° 126° (SE) 1,540 5.4 -11.5°
Drops below altitude 10° 10:44:30 10° 110° (ESE) 1,593 5.9 -11.3°
Sets 10:48:06 0° 72° (ENE) 2,471 6.8 -10.6°
